Location: Commenchon
(49.6411°N, 3.1571°E)
Time: 05:42:41
(UTC+00:00)

YAOGAN 11 - Pass Details

Date: 15 May 2026
Orbit: 599 x 646 km, 98.4° (Epoch: 6 June)

Event Time Altitude Azimuth Distance (km) Brightness Sun altitude
Rises 20:45:44 0° 14° (NNE) 2,945 8.0 -10.8°
Reaches altitude 10° 20:47:56 10° 15° (NNE) 2,038 7.2 -11.1°
Maximum altitude 20:52:23 86° 103° (ESE) 651 4.1 -11.6°
Drops below altitude 10° 20:56:51 10° 195° (SSW) 2,039 6.4 -12.0°
Enters shadow 20:58:39 - 195° (SSW) 2,780 7.1 -12.2°
